sat.trackr.live / text

‹ back to catalog

STARLINK-30552

NORAD 57999 · 2023-153J

PAYLOAD ACTIVE UNKNOWN

§ Identity

Operator
Country
US
Launch date
2023-10-05
Launch site
AFETR
Launch vehicle
Mass (kg)
RCS (m²)

Purposes: comms

External: N2YO · Heavens-Above · Gunter

§ Orbital elements

Epoch: 2026-05-25T00:12:18.739872Z

Period
94.27 min
Inclination
43.0008°
Eccentricity
0.0001188
Mean motion
15.27596113 rev/d
Perigee alt
482.2 km
Apogee alt
483.8 km
Semi-major
6,861.1 km
B*
2.0409e-4
RAAN
356.4522°
Arg perigee
275.0949°
Mean anomaly
84.9767°
Rev number
14,656

§ Raw data

STARLINK-305521 57999U 23153J   26145.00855023  .00005361  00000+0  20409-3 0  99962 57999  43.0008 356.4522 0001188 275.0949  84.9767 15.27596113146560

JSON: /api/v1/satellites/57999 · /tle

For live sub-satellite position, see the globe view (requires WebGL).

§ Visibility from observer

Set your observer location to see the next 7 days of passes ≥ 10°. The values pass through the URL so the page stays shareable.

No JS? Fill the form by hand. The geolocation button needs JavaScript.